Location: Unspecified
(0.0000°N, 0.0000°E)
Time: 08:10:36
(UTC+00:00)

X-37B - Pass Details

Date: 15 September 2021
Orbit: 381 x 393 km, 45.0° (Epoch: 29 August)

Event Time Altitude Azimuth Distance (km) Brightness Sun altitude
Exits shadow 05:12:01 13° 297° (WNW) 1,203 2.5 -10.8°
Maximum altitude 05:12:45 14° 313° (NW) 1,162 2.6 -10.6°
Drops below altitude 10° 05:14:33 10° 348° (NNW) 1,389 3.3 -10.2°
Sets 05:17:17 0° 15° (NNE) 2,241 4.7 -9.5°
